YO8RXT-3 Weather Reports


time (UTC)temp
F
wind
direction
speed
knots
gust
knots
rain 1hr
in
rain 24hr
in
rain mn
in
humidity
%
barometer
mb
20260902210502 66 270 2.6 0.0 0.00 0.00 0.00 78 1019.0
20260902203502 70 320 2.6 0.0 0.00 0.00 0.00 64 1019.0
20260902200502 70 320 2.6 0.0 0.00 0.00 0.00 64 1019.0
20260902193502 70 290 2.6 0.0 0.00 0.00 0.00 69 1019.0
20260902190502 70 350 2.6 0.0 0.00 0.00 0.00 69 1019.0
20260902183502 70 280 1.7 0.0 0.00 0.00 0.00 69 1019.0
20260902180502 72 1.7 0.0 0.00 0.00 0.00 61 1019.0
20260902173502 73 310 2.6 0.0 0.00 0.00 0.00 57 1018.0
20260902170502 75 310 2.6 0.0 0.00 0.00 0.00 54 1018.0
20260902163502 75 310 4.3 0.0 0.00 0.00 0.00 57 1018.0
20260902160503 75 310 4.3 0.0 0.00 0.00 0.00 57 1018.0
20260902153503 77 320 4.3 0.0 0.00 0.00 0.00 51 1018.0
20260902150502 79 2.6 0.0 0.00 0.00 0.00 48 1018.0
20260902143502 79 2.6 0.0 0.00 0.00 0.00 48 1018.0
20260902140502 77 1.7 0.0 0.00 0.00 0.00 51 1019.0
20260902133501 77 290 4.3 0.0 0.00 0.00 0.00 51 1019.0
20260902130502 79 2.6 0.0 0.00 0.00 0.00 51 1019.0
20260902123502 79 310 7.0 0.0 0.00 0.00 0.00 51 1019.0
20260902120503 77 2.6 0.0 0.00 0.00 0.00 51 1019.0
20260902113502 77 60 2.6 0.0 0.00 0.00 0.00
20260902110502 75 1.7 0.0 0.00 0.00 0.00 54 1020.0
20260902103501 75 2.6 0.0 0.00 0.00 0.00 54 1020.0
20260902100503 77 2.6 0.0 0.00 0.00 0.00 54 1020.0
20260902093502 75 250 5.2 0.0 0.00 0.00 0.00 54 1021.0
20260902090501 73 2.6 0.0 0.00 0.00 0.00 61 1021.0
20260902083501 72 260 4.3 0.0 0.00 0.00 0.00 65 1021.0
20260902080502 70 1.7 0.0 0.00 0.00 0.00 69 1021.0
20260902073502 68 310 2.6 0.0 0.00 0.00 0.00 73 1021.0
20260902070502 68 280 5.2 0.0 0.00 0.00 0.00 73 1021.0
20260902063503 66 250 5.2 0.0 0.00 0.00 0.00 78 1021.0
20260902060503 64 250 4.3 0.0 0.00 0.00 0.00 83 1020.0
20260902053502 63 230 5.2 0.0 0.00 0.00 0.00 83 1020.0
20260902050502 61 240 2.6 0.0 0.00 0.00 0.00 88 1020.0
20260902043502 61 230 4.3 0.0 0.00 0.00 0.00 88 1020.0
20260902040502 61 0.9 0.0 0.00 0.00 0.00 88 1020.0
20260902033502 59 280 5.2 0.0 0.00 0.00 0.00 88 1020.0
20260902030502 59 280 4.3 0.0 0.00 0.00 0.00 88 1020.0
20260902023503 57 2.6 0.0 0.00 0.00 0.00 94 1020.0
20260902020501 59 250 2.6 0.0 0.00 0.00 0.00 88 1020.0
20260902013502 61 270 4.3 0.0 0.00 0.00 0.00 88 1019.0
20260902010502 61 1.7 0.0 0.00 0.00 0.00 88 1019.0
20260902003503 61 230 1.7 0.0 0.00 0.00 0.00 88 1019.0
20260902000503 61 230 5.2 0.0 0.00 0.00 0.00 88 1019.0
20260901233502 61 1.7 0.0 0.00 0.00 0.00 88 1019.0
20260901230502 64 1.7 0.0 0.00 0.00 0.00 73 1019.0
20260901223502 64 280 4.3 0.0 0.00 0.00 0.00 78 1019.0
20260901220502 63 260 6.1 0.0 0.00 0.00 0.00 83 1019.0
20260901213502 64 310 4.3 0.0 0.00 0.00 0.00 78 1019.0